Weather History for KBDH - May, 2013

Change the Weather History Date:

Thursday, May 9, 2013

  Actual Average (KLJF) Record (KLJF)
Temperature  
Mean Temperature 55 °F -  
Max Temperature 60 °F 68 °F - (-1)
Min Temperature 48 °F 43 °F - (-1)
Degree Days  
Heating Degree Days 10    
Growing Degree Days 5 (Base 50)    
Moisture  
Dew Point 49 °F    
Average Humidity 78    
Maximum Humidity 88    
Minimum Humidity 58    
Precipitation  
Precipitation 0.12 in - - ()
Sea Level Pressure  
Sea Level Pressure 30.06 in    
Wind  
Wind Speed 12 mph (NE)    
Max Wind Speed 20 mph    
Max Gust Speed 25 mph    
Visibility 10 miles    
Events Rain    
Averages and records for this station are not official NWS values.
T = Trace of Precipitation, MM = Missing Value Source: NWS Daily Summary

Daily Weather History Graph

Daily Weather History Graph

Search for Another Location

Airport or City:

Trip Planner

Search our weather history database for the weather conditions in past years. The results will help you decide how hot, cold, wet, or windy it might be!

Date:

Astronomy

May. 09, 2013 Rise Set
Actual Time 5:58 AM CDT 8:36 PM CDT
Civil Twilight 5:24 AM CDT 9:10 PM CDT
Nautical Twilight 4:42 AM CDT 9:52 PM CDT
Astronomical Twilight 3:53 AM CDT 10:41 PM CDT
Moon 5:44 AM CDT (5/9) 8:32 PM CDT (5/9)
Length of Visible Light 15h 45m
Length of Day
14h 38m
Waning Crescent, 0% of the Moon is Illuminated
May 9
Waning Crescent
May 9
New
May 17
First Quarter
May 24
Full
May 31
Last Quarter

Hourly Weather History & Observations

Time (CDT) Temp. Dew Point Humidity Pressure Visibility Wind Dir Wind Speed Gust Speed Precip Events Conditions
12:15 AM 59.0 °F 53.6 °F 82% 30.03 in 10.0 mi NE 9.2 mph - N/A Rain Light Rain
12:35 AM 59.0 °F 53.6 °F 82% 30.03 in 10.0 mi NE 12.7 mph 18.4 mph 0.01 in   Overcast
12:55 AM 57.2 °F 53.6 °F 88% 30.02 in 7.0 mi NE 13.8 mph - 0.01 in Rain Rain
1:15 AM 59.0 °F 53.6 °F 82% 30.02 in 10.0 mi NNE 15.0 mph - N/A   Overcast
1:35 AM 57.2 °F 53.6 °F 88% 30.01 in 10.0 mi NNE 11.5 mph - N/A   Overcast
1:55 AM 57.2 °F 53.6 °F 88% 30.01 in 7.0 mi NE 12.7 mph - 0.03 in Rain Rain
2:15 AM 57.2 °F 53.6 °F 88% 30.01 in 10.0 mi NNE 10.4 mph - 0.01 in Rain Light Rain
2:35 AM 57.2 °F 53.6 °F 88% 30.00 in 10.0 mi NNE 11.5 mph - 0.01 in   Overcast
2:55 AM 57.2 °F 53.6 °F 88% 30.00 in 10.0 mi NNE 11.5 mph - 0.01 in   Overcast
3:15 AM 57.2 °F 53.6 °F 88% 30.00 in 10.0 mi NE 8.1 mph - N/A   Overcast
3:35 AM 57.2 °F 53.6 °F 88% 29.99 in 10.0 mi NE 9.2 mph - N/A   Overcast
3:55 AM 57.2 °F 51.8 °F 82% 29.99 in 10.0 mi NE 8.1 mph - N/A   Overcast
4:15 AM 57.2 °F 51.8 °F 82% 30.00 in 10.0 mi NE 4.6 mph - N/A   Overcast
4:35 AM 57.2 °F 51.8 °F 82% 30.00 in 10.0 mi NNE 8.1 mph - N/A Rain Light Rain
4:55 AM 57.2 °F 51.8 °F 82% 30.00 in 10.0 mi NE 3.5 mph - N/A   Overcast
5:15 AM 57.2 °F 51.8 °F 82% 30.00 in 10.0 mi NE 6.9 mph - N/A Rain Light Rain
5:35 AM 57.2 °F 51.8 °F 82% 30.00 in 10.0 mi NE 8.1 mph - N/A   Drizzle
5:55 AM 57.2 °F 53.6 °F 88% 30.00 in 10.0 mi NNE 11.5 mph - N/A   Light Drizzle
6:15 AM 57.2 °F 51.8 °F 82% 30.01 in 10.0 mi NNE 10.4 mph - N/A   Mostly Cloudy
6:35 AM 57.2 °F 53.6 °F 88% 30.01 in 10.0 mi NNE 10.4 mph - N/A   Mostly Cloudy
6:55 AM 57.2 °F 53.6 °F 88% 30.01 in 10.0 mi NNE 13.8 mph - N/A   Mostly Cloudy
7:15 AM 57.2 °F 53.6 °F 88% 30.01 in 10.0 mi NNE 15.0 mph - N/A   Mostly Cloudy
7:35 AM 57.2 °F 53.6 °F 88% 30.02 in 10.0 mi NE 15.0 mph 19.6 mph N/A   Scattered Clouds
7:55 AM 57.2 °F 53.6 °F 88% 30.03 in 10.0 mi NNE 15.0 mph - N/A   Mostly Cloudy
8:15 AM 57.2 °F 53.6 °F 88% 30.03 in 10.0 mi NE 12.7 mph - N/A   Mostly Cloudy
8:35 AM 57.2 °F 53.6 °F 88% 30.03 in 10.0 mi NNE 12.7 mph - N/A   Mostly Cloudy
8:55 AM 57.2 °F 53.6 °F 88% 30.04 in 7.0 mi NNE 13.8 mph 18.4 mph N/A   Mostly Cloudy
9:15 AM 57.2 °F 53.6 °F 88% 30.04 in 7.0 mi NNE 13.8 mph 19.6 mph N/A Rain Light Rain
9:35 AM 57.2 °F 53.6 °F 88% 30.04 in 7.0 mi NNE 11.5 mph - 0.01 in Rain Light Rain
9:56 AM 57.2 °F 53.6 °F 88% 30.04 in 7.0 mi NNE 9.2 mph - N/A Rain Light Rain
10:35 AM 57.2 °F 53.6 °F 88% 30.05 in 7.0 mi North 11.5 mph - 0.04 in Rain Heavy Rain
10:56 AM 57.2 °F 53.6 °F 88% 30.06 in 7.0 mi North 10.4 mph - 0.01 in Rain Light Rain
11:15 AM 57.2 °F 53.6 °F 88% 30.06 in 10.0 mi NNE 11.5 mph - 0.02 in Rain Light Rain
11:35 AM 57.2 °F 53.6 °F 88% 30.07 in 7.0 mi NNE 13.8 mph - 0.02 in Rain Light Rain
12:15 PM 57.2 °F 51.8 °F 82% 30.08 in 10.0 mi NE 15.0 mph - N/A   Mostly Cloudy
12:35 PM 57.2 °F 53.6 °F 88% 30.08 in 10.0 mi NNE 11.5 mph - N/A   Mostly Cloudy
12:56 PM 55.4 °F 51.8 °F 88% 30.08 in 10.0 mi NE 10.4 mph - N/A Rain Light Rain
1:15 PM 55.4 °F 51.8 °F 88% 30.08 in 10.0 mi NE 12.7 mph - N/A   Light Drizzle
1:35 PM 55.4 °F 51.8 °F 88% 30.08 in 7.0 mi NE 15.0 mph 18.4 mph N/A   Light Drizzle
1:56 PM 57.2 °F 51.8 °F 82% 30.08 in 7.0 mi NNE 16.1 mph - N/A   Overcast
2:15 PM 57.2 °F 51.8 °F 82% 30.08 in 10.0 mi NNE 17.3 mph 20.7 mph N/A   Overcast
2:35 PM 57.2 °F 51.8 °F 82% 30.07 in 10.0 mi NNE 18.4 mph - N/A   Overcast
2:55 PM 57.2 °F 51.8 °F 82% 30.08 in 10.0 mi NNE 16.1 mph - N/A   Overcast
3:15 PM 57.2 °F 51.8 °F 82% 30.07 in 10.0 mi NE 15.0 mph - N/A   Overcast
3:35 PM 59.0 °F 51.8 °F 77% 30.07 in 10.0 mi NNE 15.0 mph - N/A   Mostly Cloudy
3:55 PM 59.0 °F 50.0 °F 72% 30.08 in 10.0 mi NE 18.4 mph - N/A   Mostly Cloudy
4:15 PM 59.0 °F 48.2 °F 67% 30.07 in 10.0 mi NE 19.6 mph 23.0 mph N/A   Overcast
4:35 PM 60.8 °F 48.2 °F 63% 30.07 in 10.0 mi NNE 19.6 mph 25.3 mph N/A   Overcast
4:55 PM 59.0 °F 46.4 °F 63% 30.07 in 10.0 mi NE 13.8 mph 20.7 mph N/A   Mostly Cloudy
5:15 PM 59.0 °F 46.4 °F 63% 30.07 in 10.0 mi NE 13.8 mph 21.9 mph N/A   Mostly Cloudy
5:35 PM 59.0 °F 46.4 °F 63% 30.07 in 10.0 mi NE 13.8 mph - N/A   Mostly Cloudy
5:55 PM 59.0 °F 46.4 °F 63% 30.08 in 10.0 mi NE 15.0 mph 21.9 mph N/A   Overcast
6:15 PM 59.0 °F 44.6 °F 59% 30.08 in 10.0 mi NE 12.7 mph 21.9 mph N/A   Mostly Cloudy
6:35 PM 57.2 °F 44.6 °F 63% 30.09 in 10.0 mi ENE 16.1 mph - N/A   Mostly Cloudy
6:55 PM 55.4 °F 44.6 °F 67% 30.09 in 10.0 mi NE 13.8 mph 23.0 mph N/A   Mostly Cloudy
7:15 PM 55.4 °F 42.8 °F 63% 30.10 in 10.0 mi NE 11.5 mph - N/A   Mostly Cloudy
7:55 PM 53.6 °F 42.8 °F 67% 30.11 in 10.0 mi ENE 13.8 mph 19.6 mph N/A   Overcast
8:15 PM 53.6 °F 41.0 °F 62% 30.12 in 10.0 mi NE 13.8 mph 18.4 mph N/A   Overcast
8:35 PM 51.8 °F 41.0 °F 67% 30.13 in 10.0 mi NE 10.4 mph - N/A   Overcast
8:55 PM 51.8 °F 39.2 °F 62% 30.13 in 10.0 mi NE 11.5 mph - N/A   Overcast
9:15 PM 51.8 °F 39.2 °F 62% 30.13 in 10.0 mi ENE 15.0 mph - N/A   Overcast
9:35 PM 51.8 °F 37.4 °F 58% 30.14 in 10.0 mi ENE 11.5 mph - N/A   Overcast
9:55 PM 51.8 °F 37.4 °F 58% 30.15 in 10.0 mi ENE 12.7 mph 17.3 mph N/A   Overcast
10:15 PM 50.0 °F 35.6 °F 58% 30.15 in 10.0 mi ENE 12.7 mph 18.4 mph N/A   Overcast
10:55 PM 50.0 °F 35.6 °F 58% 30.15 in 10.0 mi ENE 9.2 mph - N/A   Overcast
11:15 PM 50.0 °F 35.6 °F 58% 30.15 in 10.0 mi ENE 12.7 mph 16.1 mph N/A   Mostly Cloudy
11:36 PM 48.2 °F 35.6 °F 62% 30.15 in 10.0 mi NE 8.1 mph - N/A   Scattered Clouds